Погода в Рюмине-Красноярском

Россия / Волгоградская область     48°48′35″N   43°35′31″E
темп.,
°C
ветер,
м/с
пор.,
м/с
влажн.,
%
обл.,
%
осадки,
мм/ч
давл.,
гПа
погр.,
м
1 августа, вс
вс100:00+25ссз11360 0.0 101011
03:00+23св22451 0.0 101115
06:00+24в22303 0.0 101157
09:00+32ююв22191 0.0 1012700
12:00+35зюз22170 0.0 10113525
15:00+37з22165 0.0 10103916
18:00+36з221796 0.0 10091840
21:00+29зсз363116 0.0 1011103
2 августа, пн
пн200:00+26ссв22306 0.0 101016
03:00+25св22275 0.0 101113
06:00+26вюв113013 0.0 101122
09:00+34юв22201 0.0 1012666
12:00+37ю33155 0.0 10104008
15:00+37ююв431882 0.1 10092800
18:00+31всв692877 0.0 1009210
21:00+28юв6113982 0.0 1010288
3 августа, вт
вт300:00+27зюз113431 0.0 101012
03:00+26ююв33384 0.0 101019
06:00+26ююв23410 0.0 101054
09:00+35ю4522100 0.0 1010691
12:00+38ююз56184 0.0 10093409
15:00+39юз66160 0.0 10083814
18:00+37ююз57160 0.0 10072295
21:00+31ссз353265 0.0 1008100
4 августа, ср
ср400:00+28всв253689 0.0 1009126
03:00+22ссз61266100 0.3 1010259
06:00+22с587378 0.1 1012277
09:00+28ссз555095 0.1 1013778
12:00+31ссз553695 0.0 10131702
15:00+33сз55250 0.0 10122636
18:00+31ссз542537 0.0 10132285
21:00+26с612385 0.0 1015364
5 августа, чт
чт500:00+23ссв410455 0.0 1015282
03:00+21ссв3951100 0.0 1016207
06:00+22ссв37515 0.0 1016202
09:00+28ссв45340 0.0 10171755
12:00+31ссв44250 0.0 10162563
15:00+32ссв4421100 0.0 10152912
18:00+31св442112 0.0 10152628
21:00+25всв22290 0.0 101515